TimeCDT,TemperatureF,Dew PointF,Humidity,Sea Level PressureIn,VisibilityMPH,Wind Direction,Wind SpeedMPH,Gust SpeedMPH,PrecipitationIn,Events,Conditions,WindDirDegrees,DateUTC
12:15 AM,69.8,69.8,100,30.03,10.0,Calm,Calm,-,N/A,,Clear,0,2013-06-12 05:15:00
12:35 AM,69.8,69.8,100,30.03,10.0,Calm,Calm,-,N/A,,Clear,0,2013-06-12 05:35:00
12:55 AM,69.8,69.8,100,30.03,10.0,Calm,Calm,-,N/A,,Clear,0,2013-06-12 05:55:00
1:15 AM,68.0,68.0,100,30.03,10.0,Calm,Calm,-,N/A,,Clear,0,2013-06-12 06:15:00
1:35 AM,68.0,68.0,100,30.02,10.0,Calm,Calm,-,N/A,,Clear,0,2013-06-12 06:35:00
1:55 AM,68.0,68.0,100,30.02,10.0,Calm,Calm,-,N/A,,Clear,0,2013-06-12 06:55:00
2:15 AM,68.0,68.0,100,30.02,10.0,Calm,Calm,-,N/A,,Clear,0,2013-06-12 07:15:00
2:35 AM,68.0,68.0,100,30.02,10.0,SSW,3.5,-,N/A,,Clear,210,2013-06-12 07:35:00
2:55 AM,68.0,68.0,100,30.02,10.0,Calm,Calm,-,N/A,,Clear,0,2013-06-12 07:55:00
3:15 AM,68.0,68.0,100,30.02,10.0,Calm,Calm,-,N/A,,Clear,0,2013-06-12 08:15:00
3:35 AM,69.8,69.8,100,30.02,10.0,Calm,Calm,-,N/A,,Clear,0,2013-06-12 08:35:00
3:55 AM,71.6,69.8,94,30.02,10.0,Calm,Calm,-,N/A,,Clear,0,2013-06-12 08:55:00
4:15 AM,69.8,69.8,100,30.02,10.0,Calm,Calm,-,N/A,,Clear,0,2013-06-12 09:15:00
4:35 AM,71.6,69.8,94,30.02,10.0,Calm,Calm,-,N/A,,Clear,0,2013-06-12 09:35:00
4:55 AM,71.6,71.6,100,30.03,10.0,Calm,Calm,-,N/A,,Clear,0,2013-06-12 09:55:00
5:15 AM,71.6,71.6,100,30.03,10.0,Calm,Calm,-,N/A,,Clear,0,2013-06-12 10:15:00
5:35 AM,71.6,71.6,100,30.04,10.0,Calm,Calm,-,N/A,,Clear,0,2013-06-12 10:35:00
5:55 AM,71.6,71.6,100,30.05,10.0,Calm,Calm,-,N/A,,Clear,0,2013-06-12 10:55:00
6:15 AM,71.6,71.6,100,30.05,10.0,SSW,3.5,-,N/A,,Clear,200,2013-06-12 11:15:00
6:35 AM,73.4,73.4,100,30.05,10.0,SSW,3.5,-,N/A,,Clear,210,2013-06-12 11:35:00
6:55 AM,73.4,73.4,100,30.06,10.0,SSW,3.5,-,N/A,,Clear,200,2013-06-12 11:55:00
7:15 AM,75.2,75.2,100,30.07,10.0,South,3.5,-,N/A,,Clear,190,2013-06-12 12:15:00
7:35 AM,75.2,75.2,100,30.07,10.0,SSW,3.5,-,N/A,,Clear,200,2013-06-12 12:35:00
7:55 AM,75.2,75.2,100,30.08,10.0,SSW,4.6,-,N/A,,Clear,200,2013-06-12 12:55:00
8:15 AM,75.2,75.2,100,30.08,10.0,SSW,3.5,-,N/A,,Clear,200,2013-06-12 13:15:00
8:35 AM,75.2,75.2,100,30.09,10.0,SSW,4.6,-,N/A,,Clear,210,2013-06-12 13:35:00
8:55 AM,77.0,75.2,94,30.09,10.0,Variable,3.5,-,N/A,,Clear,0,2013-06-12 13:55:00
9:15 AM,78.8,77.0,94,30.09,10.0,Calm,Calm,-,N/A,,Clear,0,2013-06-12 14:15:00
9:35 AM,80.6,80.6,100,30.09,10.0,Calm,Calm,-,N/A,,Clear,0,2013-06-12 14:35:00
9:55 AM,80.6,80.6,100,30.09,10.0,Calm,Calm,-,N/A,,Clear,0,2013-06-12 14:55:00
10:15 AM,82.4,82.4,100,30.09,10.0,Calm,Calm,-,N/A,,Clear,0,2013-06-12 15:15:00
10:35 AM,82.4,82.4,100,30.09,10.0,Calm,Calm,-,N/A,,Partly Cloudy,0,2013-06-12 15:35:00
10:55 AM,84.2,82.4,94,30.09,10.0,West,4.6,-,N/A,,Clear,280,2013-06-12 15:55:00
11:15 AM,84.2,82.4,94,30.09,10.0,Variable,4.6,-,N/A,,Clear,0,2013-06-12 16:15:00
11:35 AM,87.8,84.2,89,30.08,10.0,Variable,6.9,-,N/A,,Partly Cloudy,0,2013-06-12 16:35:00
11:55 AM,87.8,84.2,89,30.08,10.0,West,5.8,-,N/A,,Partly Cloudy,260,2013-06-12 16:55:00
12:15 PM,87.8,84.2,89,30.07,10.0,West,4.6,-,N/A,,Clear,260,2013-06-12 17:15:00
12:35 PM,87.8,84.2,89,30.06,10.0,SW,5.8,-,N/A,,Clear,230,2013-06-12 17:35:00
12:55 PM,87.8,84.2,89,30.06,10.0,West,5.8,-,N/A,,Clear,260,2013-06-12 17:55:00
1:15 PM,89.6,84.2,84,30.05,10.0,West,9.2,-,N/A,,Partly Cloudy,270,2013-06-12 18:15:00
1:35 PM,89.6,82.4,79,30.05,10.0,West,4.6,-,N/A,,Clear,260,2013-06-12 18:35:00
1:55 PM,89.6,84.2,84,30.05,10.0,Variable,5.8,-,N/A,,Clear,0,2013-06-12 18:55:00
2:15 PM,89.6,84.2,84,30.04,10.0,Variable,5.8,-,N/A,,Clear,0,2013-06-12 19:15:00
2:35 PM,89.6,84.2,84,30.03,10.0,WSW,6.9,-,N/A,,Clear,240,2013-06-12 19:35:00
2:55 PM,89.6,84.2,84,30.02,10.0,West,5.8,-,N/A,,Clear,270,2013-06-12 19:55:00
3:15 PM,91.4,84.2,79,30.01,10.0,WSW,5.8,-,N/A,,Clear,240,2013-06-12 20:15:00
3:35 PM,91.4,84.2,79,30.00,10.0,SW,9.2,-,N/A,,Clear,230,2013-06-12 20:35:00
3:55 PM,89.6,84.2,84,29.99,10.0,SW,6.9,-,N/A,,Clear,220,2013-06-12 20:55:00
4:15 PM,89.6,82.4,79,29.98,10.0,SW,6.9,-,N/A,,Clear,230,2013-06-12 21:15:00
4:35 PM,89.6,82.4,79,29.98,10.0,SW,5.8,-,N/A,,Clear,230,2013-06-12 21:35:00
4:55 PM,89.6,82.4,79,29.98,10.0,WSW,5.8,-,N/A,,Clear,250,2013-06-12 21:55:00
5:15 PM,89.6,82.4,79,29.98,10.0,WSW,6.9,-,N/A,,Clear,240,2013-06-12 22:15:00
5:35 PM,89.6,80.6,75,29.96,10.0,WSW,8.1,-,N/A,,Clear,240,2013-06-12 22:35:00
5:55 PM,89.6,82.4,79,29.96,10.0,SW,9.2,-,N/A,,Clear,220,2013-06-12 22:55:00
6:15 PM,87.8,82.4,84,29.97,10.0,SW,6.9,-,N/A,,Clear,220,2013-06-12 23:15:00
6:35 PM,87.8,80.6,79,29.96,10.0,SW,8.1,-,N/A,,Clear,220,2013-06-12 23:35:00
6:55 PM,86.0,80.6,84,29.96,10.0,SSW,8.1,-,N/A,,Clear,210,2013-06-12 23:55:00
7:15 PM,84.2,80.6,89,29.96,10.0,SSW,6.9,-,N/A,,Clear,210,2013-06-13 00:15:00
7:35 PM,82.4,78.8,89,29.96,10.0,SW,5.8,-,N/A,,Clear,220,2013-06-13 00:35:00
7:55 PM,80.6,77.0,89,29.96,10.0,SW,4.6,-,N/A,,Clear,220,2013-06-13 00:55:00
8:15 PM,78.8,77.0,94,29.96,10.0,SSW,3.5,-,N/A,,Clear,200,2013-06-13 01:15:00